FENGYUN 1C DEB

Satellite information

Favourite Embed

Satellite Type and Status

DEBRISIN ORBIT

Key statistics

Satellite FENGYUN 1C DEB at a glance.

Uptime

9616

Days in orbit

Revolutions

≈ 14.3

Per day

Orbit

SSO

Sun Synchronous Orbit

Inclination

98.9

Latest

Satellite identification and parameters

Extended collection of information and parameters for FENGYUN 1C DEB.

Object identification

Identified? True

Debris? True

Object name: FENGYUN 1C DEB

International designator: 1999-025YM

Object number (NORAD): 30276

Object ID (CCSDS): 30276

Country: PEOPLES REPUBLIC OF CHINA (PRC)

Current information (Y/N): Y

RCS size: SMALL

Orbital parameters

Period: 100.967 minutes

Inclination: 98.8674 deg

SMA: 7182.588 km

Apoapsis: 821.979 km

Periapsis: 786.928 km

RAAN: 318.8298 deg

Eccentricy: 0.00244

Argument of periapsis: 16.2883 deg

Mean anomaly: 343.9075 deg

Mean motion: 14.26202891 rev/day

Mean motion (dot): 0.00003837 rev/day2

B* drag term: 0.0016151696 1/REarth

Two-line elements (TLE)

Creation date: Sept. 5, 2025, 7:38 p.m.

Reference frame: TEME

Reference center: EARTH

Epoch: Sept. 5, 2025, 11:04 a.m. UTC

TLE line 0: 0 FENGYUN 1C DEB

TLE line 1: 1 30276U 99025YM 25248.46152594 .00003837 00000-0 16152-2 0 9998

TLE line 2: 2 30276 98.8674 318.8298 0024400 16.2883 343.9075 14.26202891961292

Live tracking on map

Real-time ground track for satellite FENGYUN 1C DEB.

In-orbit conjunctions

A list of the most updated potential collisions computed for object FENGYUN 1C DEB.

Target Orbit TCA Probability of collision Miss distance Type
SL-3 DEB LEO 2024-12-12 19:27:11 0.0001271684 175.0 (m) DEBRIS
COSMOS 2251 DEB LEO 2024-08-12 16:03:56 0.0001566875 422.0 (m) DEBRIS
NOAA 16 DEB SSO 2024-07-19 08:16:01 0.0001392541 177.0 (m) DEBRIS

Associated space launch

Chinese polar orbiting meteorological satellite

FENGYUN 1C DEB was lifted into orbit during the mission ‘Long March 4B | Feng Yun 1C’, on board a Long March 4B space rocket.

The launch took place on May 10, 1999, 1:33 a.m. from Launch Complex 7.

For more information about the launch, click the button.

Launch to space Long March 4B | Feng Yun 1C
Long March 4B | Feng Yun 1C

Agency: N/A

Status: Launch Successful

Launch date: May 10, 1999, 1:33 a.m. UTC

Rocket: Long March 4B

Launch pad: Launch Complex 7

Location: Taiyuan Satellite Launch Center, People's Republic of China

...

Latest news about this satellite

There are no fresh news available about this satellite. Check back as we update our databases every day.


Newsletter sign-up

Weekly statistics, charts and insights to help you stay on top of the space industry.